カタログに戻る

SATCOM C3

運用中軍事GEO
NORAD 22117·PAYLOAD·🇺🇸 United States

打ち上げ Sep 10, 1992 から Guiana Space Centre

Loading…

TLE

最新Source: Space-Track

元期: Sep 14, 2026, 01:47 UTC

1 22117U 92060B   26257.07461675 -.00000164  00000-0  00000-0 0  9990
2 22117  14.0827  19.4253 0022176  23.4959 329.0480  0.97012707122623

AllMySatでSATCOM C3をリアルタイム追跡

Download on the App Store